This is the latest recevied weather packets stored in our database for station/object OE3APM-13. If no packets are shown the sender has not sent any weather packets the latest 10 day(s).
| Time | Temp. | Humidity | Pressure | Rain* | Wind** | Luminosity | Snow |
|---|---|---|---|---|---|---|---|
| 1777874090 | 12.78° C | 66% | 1014 hPa | 0 mm | - | 364 W/m² | - |
| 1777873788 | 12.78° C | 67% | 1014 hPa | 0 mm | - | 339 W/m² | - |
| 1777873486 | 12.22° C | 67% | 1014 hPa | 0 mm | - | 325 W/m² | - |
| 1777873186 | 11.67° C | 68% | 1014.1 hPa | 0 mm | - | 281 W/m² | - |
| 1777872885 | 11.67° C | 69% | 1014.1 hPa | 0 mm | - | 258 W/m² | - |
| 1777872585 | 11.11° C | 70% | 1014 hPa | 0 mm | - | 237 W/m² | - |
| 1777872286 | 11.11° C | 70% | 1014 hPa | 0 mm | - | 134 W/m² | - |
| 1777871980 | 10.56° C | 71% | 1014 hPa | 0 mm | - | 223 W/m² | - |
| 1777871677 | 10° C | 72% | 1013.9 hPa | 0 mm | - | 213 W/m² | - |
| 1777871378 | 10° C | 73% | 1014 hPa | 0 mm | - | 192 W/m² | - |
| 1777871078 | 9.44° C | 74% | 1013.9 hPa | 0 mm | - | 193 W/m² | - |
| 1777870777 | 9.44° C | 77% | 1013.9 hPa | 0 mm | - | 181 W/m² | - |
| 1777870477 | 8.89° C | 77% | 1013.9 hPa | 0 mm | - | 155 W/m² | - |
| 1777870177 | 8.89° C | 77% | 1013.8 hPa | 0 mm | - | 95 W/m² | - |
| 1777869877 | 8.89° C | 77% | 1013.8 hPa | 0 mm | - | 86 W/m² | - |
| 1777869578 | 8.89° C | 75% | 1013.8 hPa | 0 mm | - | 70 W/m² | - |
| 1777869272 | 8.89° C | 75% | 1013.8 hPa | 0 mm | - | 51 W/m² | - |
| 1777868973 | 8.89° C | 74% | 1013.8 hPa | 0 mm | - | 39 W/m² | - |
| 1777868675 | 8.89° C | 73% | 1013.8 hPa | 0 mm | - | 26 W/m² | - |
| 1777868373 | 8.89° C | 73% | 1013.7 hPa | 0 mm | - | 18 W/m² | - |
| 1777868071 | 8.89° C | 73% | 1013.7 hPa | 0 mm | - | 12 W/m² | - |
| 1777867771 | 8.89° C | 73% | 1013.7 hPa | 0 mm | - | 9 W/m² | - |
| 1777867472 | 8.89° C | 73% | 1013.7 hPa | 0 mm | - | 0 W/m² | - |
| 1777867173 | 8.89° C | 72% | 1013.7 hPa | 0 mm | - | 0 W/m² | - |
| 1777866872 | 8.89° C | 74% | 1013.6 hPa | 0 mm | - | 0 W/m² | - |
* Rain latest hour (hover to see other rain measurements)
** Current wind speed in m/s (hover to see current wind gust speed)